This demonstration page uses our WeatherBlox Daily Observations layout. Learn more.

Left ArrowRight Arrow

Hourly Observations for March 7, 2021

Temp ( °F °C ) Dew Point ( °F °C ) Humidity (%) Winds ( mph kmh ) Pressure ( in mb ) Visibility ( mi km ) Precip ( " mm )
12:51 am 00:51 Clear 51 10.6 26 -3.3 38 38 E 8 13 29.96 1015 10 16 N/A
1:51 am 01:51 Clear 56 13.3 27 -2.8 33 33 SE 12 19 29.96 1015 10 16 N/A
2:51 am 02:51 Clear 53 11.7 27 -2.8 37 37 ESE 9 15 29.95 1014 10 16 N/A
3:51 am 03:51 Clear 50 10 26 -3.3 39 39 ESE 7 11 29.96 1014 10 16 N/A
4:51 am 04:51 Clear 51 10.6 26 -3.3 38 38 ESE 9 15 29.97 1015 10 16 N/A
5:51 am 05:51 Clear 51 10.6 26 -3.3 38 38 ESE 14 22 29.99 1016 10 16 N/A
6:51 am 06:51 Sunny 51 10.6 26 -3.3 38 38 SE 17 28 30.03 1017 10 16 N/A
7:51 am 07:51 Sunny 54 12.2 27 -2.8 35 35 SE 15 24 30.06 1018 10 16 N/A
8:51 am 08:51 Sunny 59 15 27 -2.8 29 29 SE 13 20 30.07 1018 10 16 N/A
9:51 am 09:51 Sunny 63 17.2 27 -2.8 26 26 SE 10 17 30.08 1019 10 16 N/A
10:51 am 10:51 Sunny 66 18.9 27 -2.8 23 23 SE 9 15 30.08 1019 10 16 N/A
11:51 am 11:51 Sunny 70 21.1 27 -2.8 20 20 ESE 7 11 30.05 1018 10 16 N/A
12:51 pm 12:51 Sunny 73 22.8 28 -2.2 19 19 S 8 13 30.01 1016 10 16 N/A
1:51 pm 13:51 Sunny 77 25 28 -2.2 16 16 S 8 13 29.97 1015 10 16 N/A
2:51 pm 14:51 Sunny 77 25 27 -2.8 16 16 S 6 9 29.97 1015 10 16 N/A
3:51 pm 15:51 Sunny 77 25 25 -3.9 14 14 ESE 7 11 29.96 1015 10 16 N/A
4:51 pm 16:51 Sunny 77 25 25 -3.9 14 14 VRB 5 7 29.94 1014 10 16 N/A
5:51 pm 17:51 Sunny 76 24.4 23 -5 14 14 E 5 7 29.94 1014 10 16 N/A
6:51 pm 18:51 Clear 67 19.4 23 -5 19 19 ENE 7 11 29.97 1015 10 16 N/A
7:51 pm 19:51 Clear 65 18.3 21 -6.1 19 19 E 8 13 29.97 1015 10 16 N/A
8:51 pm 20:51 Clear 62 16.7 20 -6.7 20 20 SE 7 11 29.98 1015 10 16 N/A
9:51 pm 21:51 Clear 60 15.6 19 -7.2 20 20 ESE 5 7 29.99 1016 10 16 N/A
10:51 pm 22:51 Clear 63 17.2 21 -6.1 20 20 SE 10 17 30.00 1016 10 16 N/A
11:51 pm 23:51 Clear 63 17.2 22 -5.6 21 21 E 10 17 29.98 1015 10 16 N/A

Powered by AerisWeather